Hourly Data Report for July 18, 2016

TORONTO CITY
ONTARIO

43°40'00.000" N
79°24'00.000" W
112.50 m
6158355
71508
XTO

Download Data

Hourly Data (July 2016)
Hourly Data Report for July 18, 2016
TIME
LST
Temp Definition
°C
Dew Point Definition
°C
Rel Hum Definition
%
Precip. Amount Definition
mm

Wind Dir Definition
10's deg

Wind Spd Definition
km/h
Visibility Definition
km
Stn Press Definition
kPa
Hmdx Definition


Wind Chill Definition


Weather Definition


00:00 22.0 16.4 70 0.0 LegendMM LegendMM   100.05 27   LegendNANA
01:00 24.4 18.2 68 0.0 LegendMM LegendMM   100.03 31   LegendNANA
02:00 24.6 18.6 69 0.0 LegendMM LegendMM   99.99 31   LegendNANA
03:00 24.7 18.8 70 0.0 LegendMM LegendMM   100.01 31   LegendNANA
04:00 23.7 18.8 74 0.0 LegendMM LegendMM   99.95 30   LegendNANA
05:00 22.7 18.7 78 0.0 LegendMM LegendMM   99.95 29   LegendNANA
06:00 23.6 19.1 76 0.0 LegendMM LegendMM   99.96 30   LegendNANA
07:00 25.7 19.8 70 0.0 LegendMM LegendMM   99.94 33   LegendNANA
08:00 27.7 19.1 60 0.0 LegendMM LegendMM   99.98 35   LegendNANA
09:00 28.6 17.3 51 0.0 LegendMM LegendMM   100.09 34   LegendNANA
10:00 29.2 14.7 41 0.0 LegendMM LegendMM   100.09 33   LegendNANA
11:00 30.2 14.4 38 0.0 LegendMM LegendMM   100.13 34   LegendNANA
12:00 30.1 12.4 34 0.0 LegendMM LegendMM   100.14 33   LegendNANA
13:00 30.2 12.4 34 0.0 LegendMM LegendMM   100.17 33   LegendNANA
14:00 29.9 12.0 33 0.0 LegendMM LegendMM   100.18 32   LegendNANA
15:00 28.8 9.2 29 0.0 LegendMM LegendMM   100.17 30   LegendNANA
16:00 28.6 9.0 29 0.0 LegendMM LegendMM   100.21 29   LegendNANA
17:00 27.3 9.5 33 0.0 LegendMM LegendMM   100.25 28   LegendNANA
18:00 25.8 6.7 29 0.0 LegendMM LegendMM   100.33 26   LegendNANA
19:00 25.2 8.5 35 0.0 LegendMM LegendMM   100.35 26   LegendNANA
20:00 23.8 8.8 39 0.0 LegendMM LegendMM   100.44 25   LegendNANA
21:00 22.7 7.3 37 0.0 LegendMM LegendMM   100.49     LegendNANA
22:00 21.7 7.2 39 0.0 LegendMM LegendMM   100.56     LegendNANA
23:00 20.4 8.2 45 0.0 LegendMM LegendMM   100.61     LegendNANA

Notes on Data Quality.

Legend

  • E = Estimated
  • M = Missing
  • NA = Not Available*
  • [empty] = Indicates an unobserved value
Date modified: